[TLELIST] Archives

 

[list_settings.list_name] Current TLEs

May 9th 2014 PDT

HST 1 20580U 90037B 14125.96934277 .00002526 00000-0 16047-3 0 70 2 20580 028.4703 314.6424 0002840 187.4474 300.7708 15.05302378118351 ISS (ZARYA) 1 25544U 98067A 14126.92299264 .00007994 00000-0 14853-3 0 2319 2 25544 051.6500 304.1061 0002752 337.8472 139.1065 15.49877967884923 CXO 1 25867U 99040B 14130.86571366 -.00000328 00000-0 00000+0 0 164 2 25867 076.8008 322.3450 8166979 274.5971 359.8017 00.37803449 11776 ____________________________________________________________________ These 2-Line ...Continue Reading

[list_settings.list_name] Current TLEs

May 8th 2014 PDT

HST 1 20580U 90037B 14125.96934277 .00002526 00000-0 16047-3 0 70 2 20580 028.4703 314.6424 0002840 187.4474 300.7708 15.05302378118351 ISS (ZARYA) 1 25544U 98067A 14126.92299264 .00007994 00000-0 14853-3 0 2319 2 25544 051.6500 304.1061 0002752 337.8472 139.1065 15.49877967884923 CXO 1 25867U 99040B 14130.86571366 -.00000328 00000-0 00000+0 0 164 2 25867 076.8008 322.3450 8166979 274.5971 359.8017 00.37803449 11776 ____________________________________________________________________ These 2-Line ...Continue Reading

[list_settings.list_name] Current TLEs

May 7th 2014 PDT

HST 1 20580U 90037B 14125.96934277 .00002526 00000-0 16047-3 0 70 2 20580 028.4703 314.6424 0002840 187.4474 300.7708 15.05302378118351 ISS (ZARYA) 1 25544U 98067A 14126.92299264 .00007994 00000-0 14853-3 0 2319 2 25544 051.6500 304.1061 0002752 337.8472 139.1065 15.49877967884923 CXO 1 25867U 99040B 14128.22125145 -.00000284 00000-0 00000+0 0 151 2 25867 076.7941 322.4754 8167557 274.6293 359.8150 00.37799432 11763 ____________________________________________________________________ These 2-Line ...Continue Reading

[list_settings.list_name] Current TLEs

May 6th 2014 PDT

HST 1 20580U 90037B 14125.96934277 .00002526 00000-0 16047-3 0 70 2 20580 028.4703 314.6424 0002840 187.4474 300.7708 15.05302378118351 ISS (ZARYA) 1 25544U 98067A 14126.46955149 .00007573 00000-0 14118-3 0 2271 2 25544 051.6491 306.3540 0001956 329.8917 135.3894 15.49867890884852 CXO 1 25867U 99040B 14128.22125145 -.00000284 00000-0 00000+0 0 151 2 25867 076.7941 322.4754 8167557 274.6293 359.8150 00.37799432 11763 ____________________________________________________________________ These 2-Line ...Continue Reading

[list_settings.list_name] Current TLEs

May 5th 2014 PDT

HST 1 20580U 90037B 14124.83957311 .00002405 00000-0 15220-3 0 66 2 20580 028.4703 322.0682 0002903 174.2982 299.5213 15.05296379118188 ISS (ZARYA) 1 25544U 98067A 14125.48742557 .00006978 00000-0 13081-3 0 2196 2 25544 051.6491 311.2192 0001775 325.1008 056.7894 15.49849655884708 CXO 1 25867U 99040B 14128.22125145 -.00000284 00000-0 00000+0 0 151 2 25867 076.7941 322.4754 8167557 274.6293 359.8150 00.37799432 11763 ____________________________________________________________________ These 2-Line ...Continue Reading

[list_settings.list_name] Current TLEs

May 4th 2014 PDT

HST 1 20580U 90037B 14122.98300402 .00002129 00000-0 13344-3 0 50 2 20580 028.4705 334.2686 0003134 156.7258 316.3884 15.05287629117906 ISS (ZARYA) 1 25544U 98067A 14124.39947248 .00006995 00000-0 13118-3 0 2111 2 25544 051.6491 316.6063 0001837 318.2937 109.4308 15.49833291884533 CXO 1 25867U 99040B 14125.57644546 -.00000266 00000-0 00000+0 0 146 2 25867 076.7859 322.5780 8169544 274.6841 359.7302 00.37796994 11755 ____________________________________________________________________ These 2-Line ...Continue Reading

[list_settings.list_name] Current TLEs

May 3rd 2014 PDT

HST 1 20580U 90037B 14122.98300402 .00002129 00000-0 13344-3 0 50 2 20580 028.4705 334.2686 0003134 156.7258 316.3884 15.05287629117906 ISS (ZARYA) 1 25544U 98067A 14123.36632486 .00007446 00000-0 13918-3 0 2055 2 25544 051.6488 321.7240 0001707 311.9168 107.6945 15.49819906884371 CXO 1 25867U 99040B 14125.57644546 -.00000266 00000-0 00000+0 0 146 2 25867 076.7859 322.5780 8169544 274.6841 359.7302 00.37796994 11755 ____________________________________________________________________ These 2-Line ...Continue Reading

[list_settings.list_name] Current TLEs

May 2nd 2014 PDT

HST 1 20580U 90037B 14121.77728882 .00002478 00000-0 15725-3 0 43 2 20580 028.4707 342.1930 0003151 141.7891 264.6119 15.05282717117712 ISS (ZARYA) 1 25544U 98067A 14122.39958642 -.00006134 00000-0 -10042-3 0 1983 2 25544 051.6463 326.5143 0002046 317.8171 104.4458 15.49778223884229 CXO 1 25867U 99040B 14122.93172260 -.00000300 00000-0 00000+0 0 130 2 25867 076.7723 322.6911 8173829 274.7346 359.6510 00.37800263 11748 ____________________________________________________________________ These 2-Line ...Continue Reading

[list_settings.list_name] Current TLEs

May 1st 2014 PDT

HST 1 20580U 90037B 14120.06686231 .00002583 00000-0 16447-3 0 4969 2 20580 028.4709 353.4331 0003201 124.4319 354.8658 15.05273529117466 ISS (ZARYA) 1 25544U 98067A 14121.18167975 .00002031 00000-0 43847-4 0 1946 2 25544 051.6465 332.5483 0002082 315.6023 147.1925 15.49791359884034 CXO 1 25867U 99040B 14122.93172260 -.00000300 00000-0 00000+0 0 130 2 25867 076.7723 322.6911 8173829 274.7346 359.6510 00.37800263 11748 ____________________________________________________________________ These 2-Line ...Continue Reading

[list_settings.list_name] Current TLEs

April 30th 2014 PDT

HST 1 20580U 90037B 14120.06686231 .00002583 00000-0 16447-3 0 4969 2 20580 028.4709 353.4331 0003201 124.4319 354.8658 15.05273529117466 ISS (ZARYA) 1 25544U 98067A 14120.21463258 .00010063 00000-0 18550-3 0 1870 2 25544 051.6513 337.3358 0001912 292.0865 171.8048 15.49777031883888 CXO 1 25867U 99040B 14122.93172260 -.00000300 00000-0 00000+0 0 130 2 25867 076.7723 322.6911 8173829 274.7346 359.6510 00.37800263 11748 ____________________________________________________________________ These 2-Line ...Continue Reading
  • This mailing list is a public mailing list - anyone may join or leave, at any time.
  • This mailing list is announce-only.

International Space Station (ISS) / Hubble Space Telescope (HST) / Chandra X-Ray Observatory Orbital Data via EMAIL

Privacy Policy:

Private list